Beidou DW 54

operational
NORAD ID: 45344 Int'l Des: 2020-017 Owner: CNSA Country: CN Constellation: BeiDou
HEOCIRCULARGSO

Beidou DW 54について

説明を読み込み中...

リアルタイム位置

3D地球を読み込み中...

次回通過

高度履歴

Altitude vs Time

uPlot chart will show altitude changes over time

軌道要素

1 45344U 20017A 25298.91921626 -.00000128 00000-0 00000-0 0 9994
2 45344 2.9089 42.8429 0002710 261.2937 141.3879 1.00271723 20917
Epoch: Oct 25, 2025 • Age: 8 hours

現在のステータス

高度 35787.3 km
速度 3.07 km/s
衛星直下点 0.74°N, 80.02°E
打ち上げ日 Mar 9, 2020
運用期間 5.6 years
タイプ navigation

技術仕様

分類 Payload
質量 3060.00 kg
乾燥質量 1700.00 kg
総質量 3060.00 kg
長さ 3.00 m
直径 1.70 m
スパン 18.00 m
形状 Box + 2 Pan
製造者 CAST
バスタイプ DFH-3B
フェーズステータス In Orbit
所有者/国 CNSA/CN

大規模コンステレーション

Loading constellations...